Regional Weather Roundup
Issued by NWS Kansas City/Pleasant Hill, MO

Home | Current Version | Previous Version | Text Only | Print | Product List | Glossary On
Versions: 1 2 3 4 5 6 7 8 9 10 11 12 13 14 15 16 17 18 19 20 21 22 23 24 25 26 27 28 29 30 31 32 33 34 35 36 37 38 39 40 41 42 43 44 45 46 47 48 49
000
ASUS43 KEAX 080410
RWREAX

WEATHER ROUNDUP FOR EASTERN KANSAS AND NORTHWEST MISSOURI
NATIONAL WEATHER SERVICE KANSAS CITY/PLEASANT HILL MO
1000 PM CST SUN FEB 07 2016

KSZ040-057-103>105-MOZ028-029-037-043-080500-
...KANSAS CITY METROPOLITAN AREA...

CITY           SKY/WX    TMP DP  RH WIND       PRES   REMARKS
K.C. INTL      CLOUDY    36  29  75 NW15G23   30.01S WCI  27
K.C. DOWNTOWN  CLOUDY    39  28  64 NW13G20   30.01S WCI  31
LEES SUMMIT    FLURRIES  37  27  67 NW17G28   30.01F WCI  27
OLATHE - IXD   CLOUDY    39  26  59 NW16G29   30.04F WCI  30
OLATHE - OJC   CLOUDY    38  25  59 NW20G32   30.03S WCI  28
LAWRENCE       CLOUDY    40  25  55 NW14G24   30.05F WCI  32

$$

MOZ001>008-011>017-020>025-030>033-038>040-044>046-053-054-080500-
...NORTHERN AND CENTRAL MISSOURI...

CITY           SKY/WX    TMP DP  RH WIND       PRES   REMARKS
ST. JOSEPH     CLOUDY    36  27  69 NW24      30.01S WCI  24
MOSBY            N/A     37  28  70 NW22G32   29.99F WCI  27
WARRENSBURG    CLOUDY    37  28  70 W15G28    30.00S WCI  28
WHITEMAN AFB   LGT RAIN  37  28  70 NW23G33   29.97S WCI  26
CLINTON          N/A     39  28  65 NW15G23   30.02R WCI  31
SEDALIA        CLOUDY    39  26  59 W17G24    29.97S WCI  30
WARSAW         NOT AVBL
CHILLICOTHE      N/A     38  29  70 W12G21    29.94F WCI  30
KIRKSVILLE     CLOUDY    34  29  82 W12       29.86F WCI  25

$$

MOZ041-047>049-056>058-063>065-088>090-097-080500-
...EASTERN AND SOUTHERN MISSOURI...

CITY           SKY/WX    TMP DP  RH WIND       PRES   REMARKS
ST. LOUIS INTL MOCLDY    40  31  70 SW7       29.87F
SPIRIT OF STL  CLOUDY    38  30  73 SW6       29.87F WCI  33
COLUMBIA       MOCLDY    41  24  51 W23G32    29.90F WCI  31
JEFFERSON CITY MOCLDY    43  24  47 W29G36    29.93S WCI  33
ROLLA          MOCLDY    41  19  41 W13       29.89F WCI  34
OSAGE BEACH    CLOUDY    45  19  36 W12G21    29.94F
SPRINGFIELD    CLOUDY    42  15  33 NW15G23   30.01S WCI  34
BRANSON        CLEAR     43  16  33 CALM      30.03F
JOPLIN         MOCLDY    41  19  41 NW15      30.09R WCI  33
WEST PLAINS    CLEAR     42  22  44 W9        29.97F

$$

IAZ060-094-KSZ022-034>040-054-083-096-NEZ052-066-093-080500-
...KANSAS...SOUTHEAST NEBRASKA AND IOWA...

CITY           SKY/WX    TMP DP  RH WIND       PRES   REMARKS
TOPEKA         CLOUDY    41  23  48 W12G20    30.06F WCI  34
MANHATTAN      MOCLDY    37  21  52 W9        30.11F WCI  30
EMPORIA        PTCLDY    35  22  58 W12       30.10F WCI  27
CHANUTE        CLEAR     41  20  43 NW13      30.11S WCI  34
WICHITA        CLEAR     39  20  46 NW17G30   30.19R WCI  30
OMAHA          LGT SNOW  32  30  92 NW21      29.99R FOG     WCI  20
LINCOLN        CLOUDY    36  22  56 N29G45    30.05S WCI  23
FALLS CITY     CLOUDY    36  28  73 NW16G22   30.02S WCI  26
LAMONI         CLOUDY    33  23  66 NW37G44   29.89S WCI  18
DES MOINES     FLURRIES  33  27  78 NW25G36   29.85F WCI  20

$$




USA.gov is the U.S. government's official web portal to all federal, state and local government web resources and services.